Weather History for Stillwater, OK

Change the Weather History Date:

Wednesday, July 17, 2013

  Actual Average Record
Temperature  
Mean Temperature 81 °F -  
Max Temperature 91 °F 93 °F 105 °F (2006)
Min Temperature 71 °F 69 °F 61 °F (2014)
Cooling Degree Days 16    
Growing Degree Days 31 (Base 50)    
Moisture  
Dew Point 71 °F    
Average Humidity 76    
Maximum Humidity 97    
Minimum Humidity 50    
Precipitation  
Precipitation 0.00 in - - ()
Sea Level Pressure  
Sea Level Pressure 30.23 in    
Wind  
Wind Speed 5 mph (SE)    
Max Wind Speed 16 mph    
Max Gust Speed 22 mph    
Visibility 10 miles    
Events Rain , Thunderstorm    
Averages and records for this station are not official NWS values.
T = Trace of Precipitation, MM = Missing Value Source: NWS Daily Summary

Daily Weather History Graph

Daily Weather History Graph

Search for Another Location

Airport:

Trip Planner

Search our weather history database for the weather conditions in past years. The results will help you decide how hot, cold, wet, or windy it might be!

Date:

Astronomy

Jul. 17, 2013 Rise Set
Actual Time 6:24 AM CDT 8:44 PM CDT
Civil Twilight 5:54 AM CDT 9:13 PM CDT
Nautical Twilight 5:18 AM CDT 9:49 PM CDT
Astronomical Twilight 4:39 AM CDT 10:29 PM CDT
Moon 3:37 PM CDT (7/17) 1:28 AM CDT (7/17)
Length of Visible Light 15h 18m
Length of Day
14h 20m
Waxing Gibbous, 67% of the Moon is Illuminated
Jul 17
Waxing Gibbous
Jul 22
Full
Jul 29
Last Quarter
Aug 6
New
Aug 14
First Quarter

Hourly Weather History & Observations

Time (CDT) Temp. Heat Index Dew Point Humidity Pressure Visibility Wind Dir Wind Speed Gust Speed Precip Events Conditions
12:53 AM 72.0 °F - 71.1 °F 97% 30.23 in 10.0 mi NNE 3.5 mph - 0.00 in Rain Rain
1:53 AM 72.0 °F - 70.0 °F 93% 30.23 in 9.0 mi NNE 5.8 mph - 0.00 in Rain Rain
2:53 AM 72.0 °F - 70.0 °F 93% 30.22 in 10.0 mi NNE 5.8 mph - 0.00 in Rain Rain
3:53 AM 71.1 °F - 69.1 °F 93% 30.22 in 10.0 mi NNE 6.9 mph - 0.00 in Rain Rain
4:53 AM 71.1 °F - 69.1 °F 93% 30.22 in 10.0 mi ENE 4.6 mph - 0.00 in Rain Rain
5:32 AM 71.6 °F - 69.8 °F 94% 30.26 in 9.0 mi WNW 3.5 mph - 0.00 in Rain , Thunderstorm Rain
5:53 AM 71.1 °F - 69.1 °F 93% 30.23 in 8.0 mi Calm Calm - 0.00 in Rain Rain
6:53 AM 72.0 °F - 70.0 °F 93% 30.25 in 6.0 mi Calm Calm - 0.00 in Rain Rain
7:53 AM 75.0 °F - 72.0 °F 90% 30.26 in 10.0 mi East 3.5 mph - 0.00 in Rain Rain
8:53 AM 78.1 °F - 72.0 °F 81% 30.27 in 10.0 mi SE 5.8 mph - 0.00 in Rain Rain
9:53 AM 82.0 °F 87.9 °F 73.9 °F 76% 30.27 in 10.0 mi SSE 6.9 mph - 0.00 in Rain Rain
10:53 AM 84.9 °F 93.3 °F 75.0 °F 72% 30.27 in 10.0 mi SSE 9.2 mph - 0.00 in Rain Rain
11:02 AM 84.2 °F 90.9 °F 73.4 °F 70% 30.30 in 10.0 mi SSE 9.2 mph - 0.00 in Rain Rain
11:53 AM 86.0 °F 93.0 °F 73.0 °F 65% 30.27 in 10.0 mi Variable 4.6 mph - 0.00 in Rain Rain
12:17 PM 84.2 °F 90.9 °F 73.4 °F 70% 30.30 in 10.0 mi South 4.6 mph - 0.00 in Rain Rain
12:40 PM 87.8 °F 95.6 °F 73.4 °F 62% 30.29 in 10.0 mi ESE 4.6 mph - 0.00 in Rain Rain
12:53 PM 87.1 °F 95.4 °F 73.9 °F 65% 30.26 in 10.0 mi Calm Calm - 0.00 in Rain Rain
1:53 PM 84.9 °F 90.1 °F 71.1 °F 63% 30.24 in 10.0 mi SE 5.8 mph - 0.00 in Rain Rain
2:53 PM 89.1 °F 95.0 °F 71.1 °F 55% 30.20 in 10.0 mi ESE 8.1 mph - 0.00 in Rain Rain
3:53 PM 91.0 °F 98.2 °F 72.0 °F 53% 30.18 in 10.0 mi SE 10.4 mph - 0.00 in Rain Rain
4:53 PM 90.0 °F 95.4 °F 70.0 °F 52% 30.17 in 10.0 mi SSE 12.7 mph 18.4 mph 0.00 in Rain Rain
5:53 PM 90.0 °F 94.5 °F 69.1 °F 50% 30.17 in 10.0 mi SE 8.1 mph - 0.00 in Rain Rain
6:15 PM 86.0 °F 90.4 °F 69.8 °F 58% 30.21 in 10.0 mi South 16.1 mph 21.9 mph 0.00 in Rain Rain
6:53 PM 84.9 °F 88.8 °F 69.1 °F 59% 30.17 in 10.0 mi South 10.4 mph - 0.00 in Rain Rain
7:53 PM 81.0 °F 84.1 °F 69.1 °F 67% 30.17 in 10.0 mi South 6.9 mph - 0.00 in Rain Rain
8:53 PM 78.1 °F - 69.1 °F 74% 30.18 in 10.0 mi Calm Calm - 0.00 in Rain Rain
9:53 PM 75.0 °F - 70.0 °F 84% 30.18 in 10.0 mi Calm Calm - 0.00 in Rain Rain
10:53 PM 73.0 °F - 70.0 °F 90% 30.19 in 10.0 mi Calm Calm - 0.00 in Rain Rain
11:53 PM 72.0 °F - 70.0 °F 93% 30.18 in 10.0 mi Calm Calm - 0.00 in Rain Rain